Time,TemperatureF,DewpointF,PressureIn,WindDirection,WindDirectionDegrees,WindSpeedMPH,WindSpeedGustMPH,Humidity,HourlyPrecipIn,Conditions,Clouds,dailyrainin,SoftwareType,DateUTC
2013-11-06 00:00:00,29.3,25.1,30.49,SSW,194,0.0,0.0,84,0.00,CLR,,0.00,WeatherDisplay:10.37,2013-11-06 05:00:00,
2013-11-06 00:01:00,29.3,25.1,30.49,SSW,194,0.0,0.0,84,0.00,CLR,,0.00,WeatherDisplay:10.37,2013-11-06 05:01:00,
2013-11-06 00:02:00,29.4,25.2,30.49,SSW,195,0.0,0.0,84,0.00,CLR,,0.00,WeatherDisplay:10.37,2013-11-06 05:02:00,
2013-11-06 00:07:00,29.3,25.1,30.49,SSW,194,0.0,0.0,84,0.00,CLR,,0.00,WeatherDisplay:10.37,2013-11-06 05:07:00,
2013-11-06 00:12:00,29.8,25.6,30.49,SSW,194,0.0,0.0,84,0.00,CLR,,0.00,WeatherDisplay:10.37,2013-11-06 05:12:00,
2013-11-06 00:17:00,29.7,25.5,30.49,SSW,195,0.0,0.0,84,0.00,CLR,,0.00,WeatherDisplay:10.37,2013-11-06 05:17:00,
2013-11-06 00:22:00,29.7,25.5,30.49,SSW,195,0.0,0.0,84,0.00,CLR,,0.00,WeatherDisplay:10.37,2013-11-06 05:22:00,
2013-11-06 00:27:00,29.8,25.6,30.49,SSW,194,0.0,0.0,84,0.00,CLR,,0.00,WeatherDisplay:10.37,2013-11-06 05:27:00,
2013-11-06 00:32:00,29.7,25.5,30.49,SSW,195,0.0,0.0,84,0.00,CLR,,0.00,WeatherDisplay:10.37,2013-11-06 05:32:00,
2013-11-06 00:37:00,29.9,25.7,30.49,SSW,194,0.0,0.0,84,0.00,CLR,,0.00,WeatherDisplay:10.37,2013-11-06 05:37:00,
2013-11-06 00:42:00,29.8,25.6,30.49,SSW,194,0.0,0.0,84,0.00,CLR,,0.00,WeatherDisplay:10.37,2013-11-06 05:42:00,
2013-11-06 00:47:00,29.6,25.4,30.49,SSW,194,0.0,0.0,84,0.00,CLR,,0.00,WeatherDisplay:10.37,2013-11-06 05:47:00,
2013-11-06 00:52:00,29.5,25.3,30.49,SSW,195,0.0,0.0,84,0.00,CLR,,0.00,WeatherDisplay:10.37,2013-11-06 05:52:00,
2013-11-06 00:57:00,29.5,25.3,30.49,SSW,194,0.0,0.0,84,0.00,CLR,,0.00,WeatherDisplay:10.37,2013-11-06 05:57:00,
2013-11-06 01:02:00,29.6,24.5,30.48,SSW,195,0.0,0.0,81,0.00,CLR,,0.00,WeatherDisplay:10.37,2013-11-06 06:02:00,
2013-11-06 01:07:00,29.8,24.7,30.48,SSW,194,0.0,0.0,81,0.00,CLR,,0.00,WeatherDisplay:10.37,2013-11-06 06:07:00,
2013-11-06 01:12:00,29.8,24.7,30.48,SSW,194,0.0,0.0,81,0.00,CLR,,0.00,WeatherDisplay:10.37,2013-11-06 06:12:00,
2013-11-06 01:17:00,29.6,24.5,30.48,SSW,194,0.0,0.0,81,0.00,CLR,,0.00,WeatherDisplay:10.37,2013-11-06 06:17:00,
2013-11-06 01:22:00,29.4,24.3,30.48,SSW,195,0.0,0.0,81,0.00,CLR,,0.00,WeatherDisplay:10.37,2013-11-06 06:22:00,
2013-11-06 01:27:00,29.3,24.2,30.48,SSW,194,0.0,0.0,81,0.00,CLR,,0.00,WeatherDisplay:10.37,2013-11-06 06:27:00,
2013-11-06 01:32:00,29.1,24.0,30.48,SSW,194,0.0,0.0,81,0.00,CLR,,0.00,WeatherDisplay:10.37,2013-11-06 06:32:00,
2013-11-06 01:37:00,29.3,24.2,30.48,SSW,194,0.0,0.0,81,0.00,CLR,,0.00,WeatherDisplay:10.37,2013-11-06 06:37:00,
2013-11-06 01:42:00,29.7,24.6,30.48,SSW,194,0.0,0.0,81,0.00,CLR,,0.00,WeatherDisplay:10.37,2013-11-06 06:42:00,
2013-11-06 01:47:00,29.6,24.5,30.48,SSW,195,0.0,0.0,81,0.00,CLR,,0.00,WeatherDisplay:10.37,2013-11-06 06:47:00,
2013-11-06 01:52:00,29.4,24.3,30.48,SSW,194,0.0,0.0,81,0.00,CLR,,0.00,WeatherDisplay:10.37,2013-11-06 06:52:00,
2013-11-06 01:57:00,29.2,24.1,30.48,SSW,195,0.0,0.0,81,0.00,CLR,,0.00,WeatherDisplay:10.37,2013-11-06 06:57:00,
2013-11-06 02:02:00,29.0,23.9,30.48,SSW,194,0.0,0.0,81,0.00,CLR,,0.00,WeatherDisplay:10.37,2013-11-06 07:02:00,
2013-11-06 02:07:00,29.2,24.1,30.48,SSW,194,0.0,0.0,81,0.00,CLR,,0.00,WeatherDisplay:10.37,2013-11-06 07:07:00,
2013-11-06 02:12:00,28.7,24.5,30.48,SSW,195,0.0,0.0,84,0.00,CLR,,0.00,WeatherDisplay:10.37,2013-11-06 07:12:00,
2013-11-06 02:17:00,29.4,25.2,30.48,SSW,194,0.0,0.0,84,0.00,CLR,,0.00,WeatherDisplay:10.37,2013-11-06 07:17:00,
2013-11-06 02:22:00,29.7,25.5,30.48,SSW,194,0.0,0.0,84,0.00,CLR,,0.00,WeatherDisplay:10.37,2013-11-06 07:22:00,
2013-11-06 02:27:00,29.6,25.4,30.48,SSW,195,0.0,0.0,84,0.00,CLR,,0.00,WeatherDisplay:10.37,2013-11-06 07:27:00,
2013-11-06 02:32:00,29.3,25.1,30.48,SSW,194,0.0,0.0,84,0.00,CLR,,0.00,WeatherDisplay:10.37,2013-11-06 07:32:00,
2013-11-06 02:37:00,29.5,25.3,30.48,SSW,194,0.0,0.0,84,0.00,CLR,,0.00,WeatherDisplay:10.37,2013-11-06 07:37:00,
2013-11-06 02:42:00,29.6,25.4,30.48,SSW,195,0.0,0.0,84,0.00,CLR,,0.00,WeatherDisplay:10.37,2013-11-06 07:42:00,
2013-11-06 02:47:00,29.1,24.9,30.48,SSW,194,0.0,0.0,84,0.00,CLR,,0.00,WeatherDisplay:10.37,2013-11-06 07:47:00,
2013-11-06 02:52:00,29.3,25.1,30.48,SSW,194,0.0,0.0,84,0.00,CLR,,0.00,WeatherDisplay:10.37,2013-11-06 07:52:00,
2013-11-06 02:57:00,29.5,25.3,30.48,SSW,194,0.0,0.0,84,0.00,CLR,,0.00,WeatherDisplay:10.37,2013-11-06 07:57:00,
2013-11-06 03:02:00,29.5,25.3,30.48,SSW,195,0.0,0.0,84,0.00,CLR,,0.00,WeatherDisplay:10.37,2013-11-06 08:02:00,
2013-11-06 03:07:00,29.7,25.5,30.48,SSW,194,0.0,0.0,84,0.00,CLR,,0.00,WeatherDisplay:10.37,2013-11-06 08:07:00,
2013-11-06 03:12:00,29.8,26.7,30.45,SSW,195,0.0,0.0,88,0.00,CLR,,0.00,WeatherDisplay:10.37,2013-11-06 08:12:00,
2013-11-06 03:17:00,29.8,26.7,30.45,SSW,194,0.0,0.0,88,0.00,CLR,,0.00,WeatherDisplay:10.37,2013-11-06 08:17:00,
2013-11-06 03:22:00,29.5,26.4,30.45,SSW,194,0.0,0.0,88,0.00,CLR,,0.00,WeatherDisplay:10.37,2013-11-06 08:22:00,
2013-11-06 03:27:00,29.7,26.6,30.45,SSW,194,0.0,0.0,88,0.00,CLR,,0.00,WeatherDisplay:10.37,2013-11-06 08:27:00,
2013-11-06 03:32:00,29.8,26.7,30.45,SSW,194,0.0,0.0,88,0.00,CLR,,0.00,WeatherDisplay:10.37,2013-11-06 08:32:00,
2013-11-06 03:37:00,29.5,26.4,30.45,SSW,194,0.0,0.0,88,0.00,CLR,,0.00,WeatherDisplay:10.37,2013-11-06 08:37:00,
2013-11-06 03:42:00,29.6,26.5,30.45,SSW,195,0.0,0.0,88,0.00,CLR,,0.00,WeatherDisplay:10.37,2013-11-06 08:42:00,
2013-11-06 03:47:00,29.7,26.6,30.45,SSW,194,0.0,0.0,88,0.00,CLR,,0.00,WeatherDisplay:10.37,2013-11-06 08:47:00,
2013-11-06 03:52:00,29.4,26.3,30.45,SSW,194,0.0,0.0,88,0.00,CLR,,0.00,WeatherDisplay:10.37,2013-11-06 08:52:00,
2013-11-06 03:57:00,29.6,26.5,30.45,SSW,195,0.0,0.0,88,0.00,CLR,,0.00,WeatherDisplay:10.37,2013-11-06 08:57:00,
2013-11-06 04:02:00,29.4,25.4,30.45,SSW,194,0.0,0.0,85,0.00,CLR,,0.00,WeatherDisplay:10.37,2013-11-06 09:02:00,
2013-11-06 04:07:00,29.5,25.5,30.45,SSW,194,0.0,0.0,85,0.00,CLR,,0.00,WeatherDisplay:10.37,2013-11-06 09:07:00,
2013-11-06 04:12:00,29.4,25.4,30.45,SSW,194,0.0,0.0,85,0.00,CLR,,0.00,WeatherDisplay:10.37,2013-11-06 09:12:00,
2013-11-06 04:17:00,29.5,25.5,30.45,SSW,195,0.0,0.0,85,0.00,CLR,,0.00,WeatherDisplay:10.37,2013-11-06 09:17:00,
2013-11-06 04:22:00,29.8,25.8,30.45,SSW,194,0.0,0.0,85,0.00,CLR,,0.00,WeatherDisplay:10.37,2013-11-06 09:22:00,
2013-11-06 04:27:00,29.8,25.8,30.45,SSW,194,0.0,0.0,85,0.00,CLR,,0.00,WeatherDisplay:10.37,2013-11-06 09:27:00,
2013-11-06 04:32:00,29.9,25.9,30.45,SSW,194,0.0,0.0,85,0.00,CLR,,0.00,WeatherDisplay:10.37,2013-11-06 09:32:00,
2013-11-06 04:37:00,29.9,25.9,30.45,SSW,194,0.0,0.0,85,0.00,CLR,,0.00,WeatherDisplay:10.37,2013-11-06 09:37:00,
2013-11-06 04:42:00,29.3,25.4,30.45,SSW,194,0.0,0.0,85,0.00,CLR,,0.00,WeatherDisplay:10.37,2013-11-06 09:42:00,
2013-11-06 04:47:00,29.6,25.6,30.45,SSW,194,0.0,0.0,85,0.00,CLR,,0.00,WeatherDisplay:10.37,2013-11-06 09:47:00,
2013-11-06 04:52:00,29.5,25.5,30.45,SSW,194,0.0,0.0,85,0.00,CLR,,0.00,WeatherDisplay:10.37,2013-11-06 09:52:00,
2013-11-06 04:57:00,29.6,25.6,30.45,SSW,194,0.0,0.0,85,0.00,CLR,,0.00,WeatherDisplay:10.37,2013-11-06 09:57:00,
2013-11-06 05:02:00,29.5,25.5,30.45,SSW,194,0.0,0.0,85,0.00,CLR,,0.00,WeatherDisplay:10.37,2013-11-06 10:02:00,
2013-11-06 05:07:00,29.5,25.5,30.45,SSW,195,0.0,0.0,85,0.00,CLR,,0.00,WeatherDisplay:10.37,2013-11-06 10:07:00,
2013-11-06 05:12:00,29.1,26.8,30.43,SSW,194,0.0,0.0,91,0.00,CLR,,0.00,WeatherDisplay:10.37,2013-11-06 10:12:00,
2013-11-06 05:17:00,28.9,26.6,30.43,SSW,194,0.0,0.0,91,0.00,CLR,,0.00,WeatherDisplay:10.37,2013-11-06 10:17:00,
2013-11-06 05:22:00,29.0,26.7,30.43,SSW,194,0.0,0.0,91,0.00,CLR,,0.00,WeatherDisplay:10.37,2013-11-06 10:22:00,
2013-11-06 05:27:00,29.1,26.8,30.43,SSW,194,0.0,0.0,91,0.00,CLR,,0.00,WeatherDisplay:10.37,2013-11-06 10:27:00,
2013-11-06 05:32:00,29.2,26.9,30.43,SSW,195,0.0,0.0,91,0.00,CLR,,0.00,WeatherDisplay:10.37,2013-11-06 10:32:00,
2013-11-06 05:37:00,28.9,26.6,30.43,SSW,195,1.1,0.0,91,0.00,CLR,,0.00,WeatherDisplay:10.37,2013-11-06 10:37:00,
2013-11-06 05:42:00,28.7,26.4,30.43,SSW,195,0.0,0.0,91,0.00,CLR,,0.00,WeatherDisplay:10.37,2013-11-06 10:42:00,
2013-11-06 05:47:00,28.7,26.4,30.43,SSW,194,0.0,0.0,91,0.00,CLR,,0.00,WeatherDisplay:10.37,2013-11-06 10:47:00,
2013-11-06 05:52:00,28.7,26.4,30.43,SSW,195,0.0,0.0,91,0.00,CLR,,0.00,WeatherDisplay:10.37,2013-11-06 10:52:00,
2013-11-06 05:57:00,28.9,26.6,30.43,SSW,194,0.0,0.0,91,0.00,CLR,,0.00,WeatherDisplay:10.37,2013-11-06 10:57:00,
2013-11-06 06:02:00,29.1,26.8,30.43,SSW,194,0.0,0.0,91,0.00,CLR,,0.00,WeatherDisplay:10.37,2013-11-06 11:02:00,
2013-11-06 06:07:00,29.3,27.0,30.43,SSW,194,0.0,0.0,91,0.00,CLR,,0.00,WeatherDisplay:10.37,2013-11-06 11:07:00,
2013-11-06 06:12:00,29.5,26.4,30.42,SSW,194,0.0,0.0,88,0.00,CLR,,0.00,WeatherDisplay:10.37,2013-11-06 11:12:00,
2013-11-06 06:17:00,29.6,26.5,30.42,SSW,194,0.0,0.0,88,0.00,CLR,,0.00,WeatherDisplay:10.37,2013-11-06 11:17:00,
2013-11-06 06:22:00,29.7,26.6,30.42,SSW,195,0.0,0.0,88,0.00,CLR,,0.00,WeatherDisplay:10.37,2013-11-06 11:22:00,
2013-11-06 06:27:00,29.6,26.5,30.42,SSW,195,0.0,0.0,88,0.00,CLR,,0.00,WeatherDisplay:10.37,2013-11-06 11:27:00,
2013-11-06 06:32:00,29.8,26.7,30.42,SSW,194,0.0,0.0,88,0.00,CLR,,0.00,WeatherDisplay:10.37,2013-11-06 11:32:00,
2013-11-06 06:37:00,29.8,26.7,30.42,SSW,195,0.0,0.0,88,0.00,CLR,,0.00,WeatherDisplay:10.37,2013-11-06 11:37:00,
2013-11-06 06:42:00,29.9,26.8,30.42,SSW,195,0.0,0.0,88,0.00,CLR,,0.00,WeatherDisplay:10.37,2013-11-06 11:42:00,
2013-11-06 06:47:00,29.4,26.3,30.42,SSW,194,0.0,0.0,88,0.00,CLR,,0.00,WeatherDisplay:10.37,2013-11-06 11:47:00,
2013-11-06 06:52:00,29.6,26.5,30.42,SSW,195,0.0,0.0,88,0.00,CLR,,0.00,WeatherDisplay:10.37,2013-11-06 11:52:00,
2013-11-06 06:57:00,29.9,26.8,30.42,SSW,194,0.0,0.0,88,0.00,CLR,,0.00,WeatherDisplay:10.37,2013-11-06 11:57:00,
2013-11-06 07:02:00,29.8,27.5,30.41,SSW,194,0.0,0.0,91,0.00,CLR,,0.00,WeatherDisplay:10.37,2013-11-06 12:02:00,
2013-11-06 07:07:00,29.4,27.1,30.41,SSW,194,0.0,0.0,91,0.00,CLR,,0.00,WeatherDisplay:10.37,2013-11-06 12:07:00,
2013-11-06 07:12:00,29.4,27.1,30.41,SSW,194,0.0,0.0,91,0.00,CLR,,0.00,WeatherDisplay:10.37,2013-11-06 12:12:00,
2013-11-06 07:17:00,29.4,27.1,30.41,SSW,194,0.0,0.0,91,0.00,CLR,,0.00,WeatherDisplay:10.37,2013-11-06 12:17:00,
2013-11-06 07:22:00,29.8,27.5,30.41,SSW,195,0.0,0.0,91,0.00,CLR,,0.00,WeatherDisplay:10.37,2013-11-06 12:22:00,
2013-11-06 07:27:00,30.2,27.9,30.41,SSW,194,0.0,0.0,91,0.00,CLR,,0.00,WeatherDisplay:10.37,2013-11-06 12:27:00,
2013-11-06 07:32:00,30.6,28.3,30.41,SSW,195,0.0,0.0,91,0.00,CLR,,0.00,WeatherDisplay:10.37,2013-11-06 12:32:00,
2013-11-06 07:37:00,31.4,29.1,30.41,SSW,194,0.0,0.0,91,0.00,CLR,,0.00,WeatherDisplay:10.37,2013-11-06 12:37:00,
2013-11-06 07:42:00,31.4,29.1,30.41,SSW,195,0.0,0.0,91,0.00,CLR,,0.00,WeatherDisplay:10.37,2013-11-06 12:42:00,
2013-11-06 07:47:00,32.5,30.2,30.41,SSW,194,0.0,0.0,91,0.00,CLR,,0.00,WeatherDisplay:10.37,2013-11-06 12:47:00,
2013-11-06 07:52:00,32.5,30.2,30.41,SSW,194,0.0,0.0,91,0.00,CLR,,0.00,WeatherDisplay:10.37,2013-11-06 12:52:00,
2013-11-06 07:57:00,32.6,30.3,30.41,SSW,195,0.0,0.0,91,0.00,CLR,,0.00,WeatherDisplay:10.37,2013-11-06 12:57:00,
2013-11-06 08:02:00,33.2,28.0,30.40,SSW,194,0.0,0.0,81,0.00,CLR,,0.00,WeatherDisplay:10.37,2013-11-06 13:02:00,
2013-11-06 08:07:00,33.1,27.9,30.40,SSW,195,0.0,0.0,81,0.00,CLR,,0.00,WeatherDisplay:10.37,2013-11-06 13:07:00,
2013-11-06 08:12:00,33.2,28.0,30.40,SSW,195,0.0,0.0,81,0.00,CLR,,0.00,WeatherDisplay:10.37,2013-11-06 13:12:00,
2013-11-06 08:17:00,33.7,28.5,30.40,SSW,195,0.0,0.0,81,0.00,CLR,,0.00,WeatherDisplay:10.37,2013-11-06 13:17:00,
2013-11-06 08:22:00,34.1,28.9,30.40,SSW,194,0.0,0.0,81,0.00,CLR,,0.00,WeatherDisplay:10.37,2013-11-06 13:22:00,
2013-11-06 08:27:00,34.4,29.2,30.40,SSW,195,0.0,0.0,81,0.00,CLR,,0.00,WeatherDisplay:10.37,2013-11-06 13:27:00,
2013-11-06 08:32:00,34.7,29.5,30.40,SSW,194,0.0,0.0,81,0.00,CLR,,0.00,WeatherDisplay:10.37,2013-11-06 13:32:00,
2013-11-06 08:37:00,34.9,29.7,30.40,SSW,195,0.0,0.0,81,0.00,CLR,,0.00,WeatherDisplay:10.37,2013-11-06 13:37:00,
2013-11-06 08:42:00,35.1,29.9,30.40,SSW,194,0.0,0.0,81,0.00,CLR,,0.00,WeatherDisplay:10.37,2013-11-06 13:42:00,
2013-11-06 08:47:00,35.5,30.2,30.40,SSW,194,0.0,0.0,81,0.00,CLR,,0.00,WeatherDisplay:10.37,2013-11-06 13:47:00,
2013-11-06 08:52:00,35.7,30.4,30.40,SSW,195,0.0,0.0,81,0.00,CLR,,0.00,WeatherDisplay:10.37,2013-11-06 13:52:00,
2013-11-06 08:57:00,36.5,31.2,30.40,SSW,194,0.0,0.0,81,0.00,CLR,,0.00,WeatherDisplay:10.37,2013-11-06 13:57:00,
2013-11-06 09:02:00,36.5,31.2,30.40,SSW,194,0.0,0.0,81,0.00,CLR,,0.00,WeatherDisplay:10.37,2013-11-06 14:02:00,
2013-11-06 09:07:00,36.8,31.5,30.40,SSW,195,0.0,0.0,81,0.00,CLR,,0.00,WeatherDisplay:10.37,2013-11-06 14:07:00,
2013-11-06 09:12:00,36.9,28.7,30.37,SSW,194,0.0,0.0,72,0.00,CLR,,0.00,WeatherDisplay:10.37,2013-11-06 14:12:00,
2013-11-06 09:17:00,37.2,29.0,30.37,SSW,194,0.0,0.0,72,0.00,CLR,,0.00,WeatherDisplay:10.37,2013-11-06 14:17:00,
2013-11-06 09:22:00,37.7,29.5,30.37,SSW,194,0.0,0.0,72,0.00,CLR,,0.00,WeatherDisplay:10.37,2013-11-06 14:22:00,
2013-11-06 09:27:00,38.2,30.0,30.37,SSW,194,0.0,0.0,72,0.00,CLR,,0.00,WeatherDisplay:10.37,2013-11-06 14:27:00,
2013-11-06 09:32:00,38.8,30.5,30.37,SSW,194,0.0,0.0,72,0.00,CLR,,0.00,WeatherDisplay:10.37,2013-11-06 14:32:00,
2013-11-06 09:37:00,39.2,30.9,30.37,SSW,195,0.0,0.0,72,0.00,CLR,,0.00,WeatherDisplay:10.37,2013-11-06 14:37:00,
2013-11-06 09:42:00,40.2,31.9,30.37,SSW,194,0.0,0.0,72,0.00,CLR,,0.00,WeatherDisplay:10.37,2013-11-06 14:42:00,
2013-11-06 09:47:00,39.8,31.5,30.37,SSW,194,0.0,0.0,72,0.00,CLR,,0.00,WeatherDisplay:10.37,2013-11-06 14:47:00,
2013-11-06 09:52:00,41.6,33.2,30.37,SSW,194,0.0,0.0,72,0.00,CLR,,0.00,WeatherDisplay:10.37,2013-11-06 14:52:00,
2013-11-06 09:57:00,41.4,33.0,30.37,SSW,194,0.0,0.0,72,0.00,CLR,,0.00,WeatherDisplay:10.37,2013-11-06 14:57:00,
2013-11-06 10:02:00,41.7,33.3,30.37,SSW,194,0.0,0.0,72,0.00,CLR,,0.00,WeatherDisplay:10.37,2013-11-06 15:02:00,
2013-11-06 10:07:00,41.4,33.0,30.37,SSW,194,0.0,0.0,72,0.00,CLR,,0.00,WeatherDisplay:10.37,2013-11-06 15:07:00,
2013-11-06 10:12:00,41.3,31.2,30.35,SSW,194,0.0,0.0,67,0.00,CLR,,0.00,WeatherDisplay:10.37,2013-11-06 15:12:00,
2013-11-06 10:17:00,42.2,32.0,30.35,SSW,194,0.0,0.0,67,0.00,CLR,,0.00,WeatherDisplay:10.37,2013-11-06 15:17:00,
2013-11-06 10:22:00,43.4,33.2,30.35,SSW,195,0.0,0.0,67,0.00,CLR,,0.00,WeatherDisplay:10.37,2013-11-06 15:22:00,
2013-11-06 10:27:00,42.8,32.6,30.35,SSW,195,0.0,0.0,67,0.00,CLR,,0.00,WeatherDisplay:10.37,2013-11-06 15:27:00,
2013-11-06 10:32:00,42.6,32.4,30.35,SSW,194,0.0,0.0,67,0.00,CLR,,0.00,WeatherDisplay:10.37,2013-11-06 15:32:00,
2013-11-06 10:37:00,44.1,33.8,30.35,SSW,194,0.0,0.0,67,0.00,CLR,,0.00,WeatherDisplay:10.37,2013-11-06 15:37:00,
2013-11-06 10:42:00,43.3,33.1,30.35,SSW,195,0.0,0.0,67,0.00,CLR,,0.00,WeatherDisplay:10.37,2013-11-06 15:42:00,
2013-11-06 10:47:00,44.8,34.5,30.35,SSW,194,0.0,0.0,67,0.00,CLR,,0.00,WeatherDisplay:10.37,2013-11-06 15:47:00,
2013-11-06 10:52:00,44.7,34.4,30.35,SSW,195,0.0,0.0,67,0.00,CLR,,0.00,WeatherDisplay:10.37,2013-11-06 15:52:00,
2013-11-06 10:57:00,45.1,34.8,30.35,SSW,194,1.1,1.1,67,0.00,CLR,,0.00,WeatherDisplay:10.37,2013-11-06 15:57:00,
2013-11-06 11:02:00,46.1,33.0,30.32,SSW,194,1.1,0.0,60,0.00,BKN,,0.00,WeatherDisplay:10.37,2013-11-06 16:02:00,
2013-11-06 11:07:00,46.4,33.3,30.32,SSW,194,1.1,1.1,60,0.00,BKN,,0.00,WeatherDisplay:10.37,2013-11-06 16:07:00,
2013-11-06 11:12:00,46.9,33.7,30.32,SSW,193,1.0,1.0,60,0.00,BKN,,0.00,WeatherDisplay:10.37,2013-11-06 16:12:00,
2013-11-06 11:17:00,48.7,35.4,30.32,SE,134,2.3,2.3,60,0.00,BKN,,0.00,WeatherDisplay:10.37,2013-11-06 16:17:00,
2013-11-06 11:22:00,49.2,35.0,30.30,SE,139,1.1,1.2,58,0.00,SCT,,0.00,WeatherDisplay:10.37,2013-11-06 16:22:00,
2013-11-06 11:27:00,49.4,35.2,30.30,SE,140,2.3,2.3,58,0.00,SCT,,0.00,WeatherDisplay:10.37,2013-11-06 16:27:00,
2013-11-06 11:32:00,48.9,34.8,30.30,SSW,207,5.8,5.8,58,0.00,SCT,,0.00,WeatherDisplay:10.37,2013-11-06 16:32:00,
2013-11-06 11:37:00,49.6,35.4,30.30,SSW,210,3.5,3.5,58,0.00,SCT,,0.00,WeatherDisplay:10.37,2013-11-06 16:37:00,
2013-11-06 11:42:00,50.1,35.9,30.30,SSW,210,0.0,0.0,58,0.00,SCT,,0.00,WeatherDisplay:10.37,2013-11-06 16:42:00,
2013-11-06 11:47:00,49.3,35.1,30.30,SSW,209,3.5,3.5,58,0.00,SCT,,0.00,WeatherDisplay:10.37,2013-11-06 16:47:00,
2013-11-06 11:52:00,49.6,35.4,30.30,SSW,209,2.3,2.3,58,0.00,SCT,,0.00,WeatherDisplay:10.37,2013-11-06 16:52:00,
2013-11-06 11:57:00,50.1,35.9,30.30,SSW,209,1.1,1.1,58,0.00,SCT,,0.00,WeatherDisplay:10.37,2013-11-06 16:57:00,
2013-11-06 12:02:00,51.5,37.2,30.30,SSW,209,2.3,2.3,58,0.00,SCT,,0.00,WeatherDisplay:10.37,2013-11-06 17:02:00,
2013-11-06 12:07:00,52.9,38.5,30.30,SSW,208,3.5,3.5,58,0.00,SCT,,0.00,WeatherDisplay:10.37,2013-11-06 17:07:00,
2013-11-06 12:12:00,51.1,37.3,30.27,SW,227,3.5,3.5,59,0.00,BKN,,0.00,WeatherDisplay:10.37,2013-11-06 17:12:00,
2013-11-06 12:17:00,50.1,36.3,30.27,South,180,2.3,2.3,59,0.00,BKN,,0.00,WeatherDisplay:10.37,2013-11-06 17:17:00,
2013-11-06 12:22:00,50.3,36.5,30.27,ENE,76,2.3,2.3,59,0.00,BKN,,0.00,WeatherDisplay:10.37,2013-11-06 17:22:00,
2013-11-06 12:27:00,50.6,36.8,30.27,East,99,3.5,3.5,59,0.00,BKN,,0.00,WeatherDisplay:10.37,2013-11-06 17:27:00,
2013-11-06 12:32:00,51.7,37.8,30.27,South,170,3.5,3.5,59,0.00,BKN,,0.00,WeatherDisplay:10.37,2013-11-06 17:32:00,
2013-11-06 12:37:00,52.4,38.5,30.27,SSW,198,3.5,3.5,59,0.00,BKN,,0.00,WeatherDisplay:10.37,2013-11-06 17:37:00,
2013-11-06 12:42:00,53.5,39.5,30.27,SSW,211,3.5,3.5,59,0.00,BKN,,0.00,WeatherDisplay:10.37,2013-11-06 17:42:00,
2013-11-06 12:47:00,53.8,39.8,30.27,SW,225,4.6,4.6,59,0.00,BKN,,0.00,WeatherDisplay:10.37,2013-11-06 17:47:00,
2013-11-06 12:52:00,52.9,39.0,30.27,SSW,211,3.5,3.5,59,0.00,BKN,,0.00,WeatherDisplay:10.37,2013-11-06 17:52:00,
2013-11-06 12:57:00,52.8,38.9,30.27,SW,218,4.6,4.6,59,0.00,BKN,,0.00,WeatherDisplay:10.37,2013-11-06 17:57:00,
2013-11-06 13:02:00,53.1,39.1,30.27,SW,219,3.5,3.5,59,0.00,BKN,,0.00,WeatherDisplay:10.37,2013-11-06 18:02:00,
2013-11-06 13:07:00,54.1,40.1,30.27,SW,230,3.5,3.5,59,0.00,BKN,,0.00,WeatherDisplay:10.37,2013-11-06 18:07:00,
2013-11-06 13:12:00,54.7,36.9,30.23,SW,222,2.3,2.3,51,0.00,BKN,,0.00,WeatherDisplay:10.37,2013-11-06 18:12:00,
2013-11-06 13:17:00,54.8,37.0,30.23,ESE,117,3.5,3.5,51,0.00,BKN,,0.00,WeatherDisplay:10.37,2013-11-06 18:17:00,
2013-11-06 13:22:00,54.8,37.0,30.23,SSW,196,1.1,1.2,51,0.00,BKN,,0.00,WeatherDisplay:10.37,2013-11-06 18:22:00,
2013-11-06 13:27:00,53.9,36.2,30.23,SE,138,5.8,5.8,51,0.00,BKN,,0.00,WeatherDisplay:10.37,2013-11-06 18:27:00,
2013-11-06 13:32:00,53.6,35.9,30.23,SSE,157,2.3,2.3,51,0.00,BKN,,0.00,WeatherDisplay:10.37,2013-11-06 18:32:00,
2013-11-06 13:37:00,54.2,36.5,30.23,South,190,3.5,3.5,51,0.00,BKN,,0.00,WeatherDisplay:10.37,2013-11-06 18:37:00,
2013-11-06 13:42:00,54.2,36.5,30.23,SW,217,3.5,3.5,51,0.00,BKN,,0.00,WeatherDisplay:10.37,2013-11-06 18:42:00,
2013-11-06 13:47:00,54.6,36.8,30.23,SSW,211,3.5,3.5,51,0.00,BKN,,0.00,WeatherDisplay:10.37,2013-11-06 18:47:00,
2013-11-06 13:52:00,54.5,36.7,30.23,SSW,209,3.5,3.5,51,0.00,BKN,,0.00,WeatherDisplay:10.37,2013-11-06 18:52:00,
2013-11-06 13:57:00,54.9,37.1,30.23,South,178,6.9,6.9,51,0.00,BKN,,0.00,WeatherDisplay:10.37,2013-11-06 18:57:00,
2013-11-06 14:02:00,54.6,36.8,30.23,South,184,6.9,6.9,51,0.00,BKN,,0.00,WeatherDisplay:10.37,2013-11-06 19:02:00,
2013-11-06 14:07:00,54.5,36.7,30.23,SW,218,3.5,3.5,51,0.00,BKN,,0.00,WeatherDisplay:10.37,2013-11-06 19:07:00,
2013-11-06 14:12:00,54.1,34.3,30.20,SSW,206,3.0,3.0,47,0.00,SCT,,0.00,WeatherDisplay:10.37,2013-11-06 19:12:00,
2013-11-06 14:17:00,53.5,33.7,30.20,SW,227,3.5,3.5,47,0.00,SCT,,0.00,WeatherDisplay:10.37,2013-11-06 19:17:00,
2013-11-06 14:22:00,54.0,34.2,30.20,South,183,3.5,3.5,47,0.00,SCT,,0.00,WeatherDisplay:10.37,2013-11-06 19:22:00,
2013-11-06 14:27:00,53.7,33.9,30.20,South,184,3.5,3.5,47,0.00,SCT,,0.00,WeatherDisplay:10.37,2013-11-06 19:27:00,
2013-11-06 14:32:00,53.8,34.0,30.20,South,179,2.3,2.3,47,0.00,SCT,,0.00,WeatherDisplay:10.37,2013-11-06 19:32:00,
2013-11-06 14:37:00,53.7,33.9,30.20,ESE,123,3.5,3.5,47,0.00,SCT,,0.00,WeatherDisplay:10.37,2013-11-06 19:37:00,
2013-11-06 14:42:00,53.6,33.8,30.20,WSW,241,3.5,3.5,47,0.00,SCT,,0.00,WeatherDisplay:10.37,2013-11-06 19:42:00,
2013-11-06 14:47:00,53.6,33.8,30.20,South,176,3.5,3.5,47,0.00,SCT,,0.00,WeatherDisplay:10.37,2013-11-06 19:47:00,
2013-11-06 14:52:00,53.3,33.6,30.20,SSE,165,3.5,3.5,47,0.00,SCT,,0.00,WeatherDisplay:10.37,2013-11-06 19:52:00,
2013-11-06 14:57:00,53.6,33.8,30.20,SSE,167,3.5,3.5,47,0.00,SCT,,0.00,WeatherDisplay:10.37,2013-11-06 19:57:00,
2013-11-06 15:02:00,53.5,34.8,30.19,South,184,3.5,3.5,49,0.00,CLR,,0.00,WeatherDisplay:10.37,2013-11-06 20:02:00,
2013-11-06 15:07:00,53.4,34.7,30.19,SSW,211,3.5,3.5,49,0.00,CLR,,0.00,WeatherDisplay:10.37,2013-11-06 20:07:00,
2013-11-06 15:12:00,53.1,34.4,30.19,SSW,199,5.0,5.0,49,0.00,CLR,,0.00,WeatherDisplay:10.37,2013-11-06 20:12:00,
2013-11-06 15:17:00,52.6,34.0,30.19,SSW,200,2.0,2.0,49,0.00,CLR,,0.00,WeatherDisplay:10.37,2013-11-06 20:17:00,
2013-11-06 15:22:00,52.6,34.0,30.19,South,186,5.0,5.0,49,0.00,CLR,,0.00,WeatherDisplay:10.37,2013-11-06 20:22:00,
2013-11-06 15:27:00,52.3,33.7,30.19,South,186,3.5,3.5,49,0.00,CLR,,0.00,WeatherDisplay:10.37,2013-11-06 20:27:00,
2013-11-06 15:32:00,52.0,33.4,30.19,South,181,2.3,2.3,49,0.00,CLR,,0.00,WeatherDisplay:10.37,2013-11-06 20:32:00,
2013-11-06 15:37:00,51.7,33.1,30.19,South,181,3.5,3.5,49,0.00,CLR,,0.00,WeatherDisplay:10.37,2013-11-06 20:37:00,
2013-11-06 15:42:00,51.5,33.0,30.19,South,183,2.3,2.3,49,0.00,CLR,,0.00,WeatherDisplay:10.37,2013-11-06 20:42:00,
2013-11-06 15:47:00,51.2,32.7,30.19,South,186,2.3,2.3,49,0.00,CLR,,0.00,WeatherDisplay:10.37,2013-11-06 20:47:00,
2013-11-06 15:52:00,51.2,32.7,30.19,South,181,1.1,1.1,49,0.00,CLR,,0.00,WeatherDisplay:10.37,2013-11-06 20:52:00,
2013-11-06 15:57:00,50.9,32.4,30.19,South,182,1.1,0.0,49,0.00,CLR,,0.00,WeatherDisplay:10.37,2013-11-06 20:57:00,
2013-11-06 16:02:00,50.7,34.6,30.19,South,182,1.1,1.1,54,0.00,CLR,,0.00,WeatherDisplay:10.37,2013-11-06 21:02:00,
2013-11-06 16:07:00,50.8,34.7,30.19,South,182,2.3,2.3,54,0.00,CLR,,0.00,WeatherDisplay:10.37,2013-11-06 21:07:00,
2013-11-06 16:12:00,50.6,34.6,30.19,South,184,2.3,2.3,54,0.00,CLR,,0.00,WeatherDisplay:10.37,2013-11-06 21:12:00,
2013-11-06 16:17:00,50.7,34.6,30.19,South,188,2.3,2.3,54,0.00,CLR,,0.00,WeatherDisplay:10.37,2013-11-06 21:17:00,
2013-11-06 16:22:00,50.9,34.8,30.19,South,173,2.3,2.3,54,0.00,CLR,,0.00,WeatherDisplay:10.37,2013-11-06 21:22:00,
2013-11-06 16:27:00,50.9,34.8,30.19,SSE,157,2.3,2.3,54,0.00,CLR,,0.00,WeatherDisplay:10.37,2013-11-06 21:27:00,
2013-11-06 16:32:00,50.7,34.6,30.19,SSW,196,2.3,2.3,54,0.00,CLR,,0.00,WeatherDisplay:10.37,2013-11-06 21:32:00,
2013-11-06 16:37:00,50.6,34.6,30.19,SSW,196,2.3,2.3,54,0.00,CLR,,0.00,WeatherDisplay:10.37,2013-11-06 21:37:00,
2013-11-06 16:42:00,50.5,34.5,30.19,SSW,196,1.1,0.0,54,0.00,CLR,,0.00,WeatherDisplay:10.37,2013-11-06 21:42:00,
2013-11-06 16:47:00,50.8,34.7,30.19,SSW,196,2.3,2.3,54,0.00,CLR,,0.00,WeatherDisplay:10.37,2013-11-06 21:47:00,
2013-11-06 16:52:00,50.8,34.7,30.19,SSW,197,3.5,3.5,54,0.00,CLR,,0.00,WeatherDisplay:10.37,2013-11-06 21:52:00,
2013-11-06 16:57:00,50.9,34.8,30.19,SSW,196,2.3,2.3,54,0.00,CLR,,0.00,WeatherDisplay:10.37,2013-11-06 21:57:00,
2013-11-06 17:02:00,50.6,36.4,30.17,SSW,200,2.0,2.0,58,0.00,CLR,,0.00,WeatherDisplay:10.37,2013-11-06 22:02:00,
2013-11-06 17:07:00,50.6,36.4,30.17,SSW,200,2.3,2.3,58,0.00,CLR,,0.00,WeatherDisplay:10.37,2013-11-06 22:07:00,
2013-11-06 17:12:00,50.4,36.2,30.17,SSW,200,3.5,3.5,58,0.00,CLR,,0.00,WeatherDisplay:10.37,2013-11-06 22:12:00,
2013-11-06 17:17:00,50.6,36.4,30.17,SSW,200,2.3,2.3,58,0.00,CLR,,0.00,WeatherDisplay:10.37,2013-11-06 22:17:00,
2013-11-06 17:22:00,50.5,36.3,30.17,SSW,200,2.3,2.3,58,0.00,CLR,,0.00,WeatherDisplay:10.37,2013-11-06 22:22:00,
2013-11-06 17:27:00,50.4,36.2,30.17,SSW,200,2.3,2.3,58,0.00,CLR,,0.00,WeatherDisplay:10.37,2013-11-06 22:27:00,
2013-11-06 17:32:00,50.4,36.2,30.17,SSW,200,3.5,3.5,58,0.00,CLR,,0.00,WeatherDisplay:10.37,2013-11-06 22:32:00,
2013-11-06 17:37:00,50.2,36.0,30.17,SSW,200,3.5,3.5,58,0.00,CLR,,0.00,WeatherDisplay:10.37,2013-11-06 22:37:00,
2013-11-06 17:42:00,50.5,36.3,30.17,SSW,200,2.3,2.3,58,0.00,CLR,,0.00,WeatherDisplay:10.37,2013-11-06 22:42:00,
2013-11-06 17:47:00,50.5,36.3,30.17,SSW,213,2.3,2.3,58,0.00,CLR,,0.00,WeatherDisplay:10.37,2013-11-06 22:47:00,
2013-11-06 17:52:00,50.4,36.2,30.17,SSW,213,1.1,1.1,58,0.00,CLR,,0.00,WeatherDisplay:10.37,2013-11-06 22:52:00,
2013-11-06 17:57:00,50.5,36.3,30.17,SSW,212,1.1,1.1,58,0.00,CLR,,0.00,WeatherDisplay:10.37,2013-11-06 22:57:00,
2013-11-06 18:02:00,50.4,38.3,30.15,SSW,212,0.0,0.7,63,0.00,CLR,,0.00,WeatherDisplay:10.37,2013-11-06 23:02:00,
2013-11-06 18:07:00,50.3,38.2,30.15,SSW,212,2.3,2.3,63,0.00,CLR,,0.00,WeatherDisplay:10.37,2013-11-06 23:07:00,
2013-11-06 18:12:00,50.2,38.1,30.15,SSW,211,2.3,2.3,63,0.00,CLR,,0.00,WeatherDisplay:10.37,2013-11-06 23:12:00,
2013-11-06 18:17:00,50.4,38.3,30.15,SSW,211,1.1,1.1,63,0.00,CLR,,0.00,WeatherDisplay:10.37,2013-11-06 23:17:00,
2013-11-06 18:22:00,50.3,38.2,30.15,SSW,211,2.3,2.3,63,0.00,CLR,,0.00,WeatherDisplay:10.37,2013-11-06 23:22:00,
2013-11-06 18:27:00,50.2,38.1,30.15,SSW,211,1.1,1.1,63,0.00,CLR,,0.00,WeatherDisplay:10.37,2013-11-06 23:27:00,
2013-11-06 18:32:00,50.1,38.0,30.15,SSW,211,3.5,3.5,63,0.00,CLR,,0.00,WeatherDisplay:10.37,2013-11-06 23:32:00,
2013-11-06 18:37:00,50.1,38.0,30.15,SSW,211,3.5,3.5,63,0.00,CLR,,0.00,WeatherDisplay:10.37,2013-11-06 23:37:00,
2013-11-06 18:42:00,50.3,38.2,30.15,SSW,212,3.5,3.5,63,0.00,CLR,,0.00,WeatherDisplay:10.37,2013-11-06 23:42:00,
2013-11-06 18:47:00,50.1,38.0,30.15,SSW,211,2.3,2.3,63,0.00,CLR,,0.00,WeatherDisplay:10.37,2013-11-06 23:47:00,
2013-11-06 18:52:00,50.0,37.9,30.15,SSW,211,3.5,3.5,63,0.00,CLR,,0.00,WeatherDisplay:10.37,2013-11-06 23:52:00,
2013-11-06 18:57:00,50.1,38.0,30.15,SSW,211,3.5,3.5,63,0.00,CLR,,0.00,WeatherDisplay:10.37,2013-11-06 23:57:00,
2013-11-06 19:02:00,50.0,37.9,30.15,SSW,211,3.5,3.5,63,0.00,CLR,,0.00,WeatherDisplay:10.37,2013-11-07 00:02:00,
2013-11-06 19:07:00,50.1,38.0,30.15,SSW,211,2.3,2.3,63,0.00,CLR,,0.00,WeatherDisplay:10.37,2013-11-07 00:07:00,
2013-11-06 19:12:00,50.0,39.1,30.13,SSW,211,3.5,3.5,66,0.00,CLR,,0.00,WeatherDisplay:10.37,2013-11-07 00:12:00,
2013-11-06 19:17:00,50.1,39.2,30.13,SSW,211,2.3,2.3,66,0.00,CLR,,0.00,WeatherDisplay:10.37,2013-11-07 00:17:00,
2013-11-06 19:22:00,50.2,39.3,30.13,SSW,209,4.6,4.6,66,0.00,CLR,,0.00,WeatherDisplay:10.37,2013-11-07 00:22:00,
2013-11-06 19:27:00,50.0,39.1,30.13,SSW,209,2.3,2.3,66,0.00,CLR,,0.00,WeatherDisplay:10.37,2013-11-07 00:27:00,
2013-11-06 19:32:00,49.8,38.9,30.13,SSW,209,2.3,2.3,66,0.00,CLR,,0.00,WeatherDisplay:10.37,2013-11-07 00:32:00,
2013-11-06 19:37:00,49.8,38.9,30.13,SSW,209,2.3,2.3,66,0.00,CLR,,0.00,WeatherDisplay:10.37,2013-11-07 00:37:00,
2013-11-06 19:42:00,49.8,38.9,30.13,SSW,209,3.5,3.5,66,0.00,CLR,,0.00,WeatherDisplay:10.37,2013-11-07 00:42:00,
2013-11-06 19:47:00,49.8,38.9,30.13,SSW,208,2.3,2.3,66,0.00,CLR,,0.00,WeatherDisplay:10.37,2013-11-07 00:47:00,
2013-11-06 19:52:00,49.8,38.9,30.13,SSW,209,2.3,2.3,66,0.00,CLR,,0.00,WeatherDisplay:10.37,2013-11-07 00:52:00,
2013-11-06 19:57:00,49.6,38.7,30.13,SSW,208,3.5,3.5,66,0.00,CLR,,0.00,WeatherDisplay:10.37,2013-11-07 00:57:00,
2013-11-06 20:02:00,49.6,38.7,30.09,SSW,208,2.3,2.3,66,0.00,CLR,,0.00,WeatherDisplay:10.37,2013-11-07 01:02:00,
2013-11-06 20:07:00,49.3,38.4,30.09,SSW,208,1.1,1.1,66,0.00,CLR,,0.00,WeatherDisplay:10.37,2013-11-07 01:07:00,
2013-11-06 20:12:00,49.4,38.5,30.09,SSW,208,2.3,2.3,66,0.00,CLR,,0.00,WeatherDisplay:10.37,2013-11-07 01:12:00,
2013-11-06 20:17:00,49.2,38.3,30.09,SSW,208,1.1,1.1,66,0.00,CLR,,0.00,WeatherDisplay:10.37,2013-11-07 01:17:00,
2013-11-06 20:22:00,49.3,38.4,30.09,SSW,208,3.5,3.5,66,0.00,CLR,,0.00,WeatherDisplay:10.37,2013-11-07 01:22:00,
2013-11-06 20:27:00,49.2,38.3,30.09,SSW,208,2.3,2.3,66,0.00,CLR,,0.00,WeatherDisplay:10.37,2013-11-07 01:27:00,
2013-11-06 20:32:00,49.1,38.2,30.09,SSW,208,1.1,1.1,66,0.00,CLR,,0.00,WeatherDisplay:10.37,2013-11-07 01:32:00,
2013-11-06 20:37:00,49.2,38.3,30.09,SSW,208,1.1,1.1,66,0.00,CLR,,0.00,WeatherDisplay:10.37,2013-11-07 01:37:00,
2013-11-06 20:42:00,49.0,38.1,30.09,SSW,208,3.5,3.5,66,0.00,CLR,,0.00,WeatherDisplay:10.37,2013-11-07 01:42:00,
2013-11-06 20:47:00,49.2,38.3,30.09,SSW,208,0.0,0.0,66,0.00,CLR,,0.00,WeatherDisplay:10.37,2013-11-07 01:47:00,
2013-11-06 20:52:00,49.0,38.1,30.09,SSW,208,3.5,3.5,66,0.00,CLR,,0.00,WeatherDisplay:10.37,2013-11-07 01:52:00,
2013-11-06 20:57:00,48.8,37.9,30.09,SSW,208,2.3,2.3,66,0.00,CLR,,0.00,WeatherDisplay:10.37,2013-11-07 01:57:00,
2013-11-06 21:02:00,48.7,38.6,30.06,SSW,208,1.1,1.1,68,0.00,CLR,,0.00,WeatherDisplay:10.37,2013-11-07 02:02:00,
2013-11-06 21:07:00,48.6,38.5,30.06,SSW,208,1.1,0.0,68,0.00,CLR,,0.00,WeatherDisplay:10.37,2013-11-07 02:07:00,
2013-11-06 21:12:00,48.5,38.4,30.06,SSW,208,2.3,2.3,68,0.00,CLR,,0.00,WeatherDisplay:10.37,2013-11-07 02:12:00,
2013-11-06 21:17:00,48.5,38.4,30.06,SSW,208,1.1,0.0,68,0.00,CLR,,0.00,WeatherDisplay:10.37,2013-11-07 02:17:00,
2013-11-06 21:22:00,48.5,38.4,30.06,SSW,208,1.1,1.1,68,0.00,CLR,,0.00,WeatherDisplay:10.37,2013-11-07 02:22:00,
2013-11-06 21:27:00,48.4,38.3,30.06,SSW,208,1.1,1.1,68,0.00,CLR,,0.00,WeatherDisplay:10.37,2013-11-07 02:27:00,
2013-11-06 21:32:00,48.5,38.4,30.06,SSW,208,2.3,0.0,68,0.00,CLR,,0.00,WeatherDisplay:10.37,2013-11-07 02:32:00,
2013-11-06 21:37:00,48.5,38.4,30.06,SSW,208,1.1,1.1,68,0.00,CLR,,0.00,WeatherDisplay:10.37,2013-11-07 02:37:00,
2013-11-06 21:42:00,48.4,38.3,30.06,SSW,208,2.3,2.3,68,0.00,CLR,,0.00,WeatherDisplay:10.37,2013-11-07 02:42:00,
2013-11-06 21:47:00,48.4,38.3,30.06,SSW,208,1.1,0.0,68,0.00,CLR,,0.00,WeatherDisplay:10.37,2013-11-07 02:47:00,
2013-11-06 21:52:00,48.3,38.2,30.06,SSW,208,2.3,2.3,68,0.00,CLR,,0.00,WeatherDisplay:10.37,2013-11-07 02:52:00,
2013-11-06 21:57:00,48.3,38.2,30.06,SSW,208,1.1,1.1,68,0.00,CLR,,0.00,WeatherDisplay:10.37,2013-11-07 02:57:00,
2013-11-06 22:02:00,48.2,39.2,30.06,SSW,208,1.1,1.1,71,0.00,CLR,,0.00,WeatherDisplay:10.37,2013-11-07 03:02:00,
2013-11-06 22:07:00,48.1,39.1,30.06,SSW,208,1.1,1.1,71,0.00,CLR,,0.00,WeatherDisplay:10.37,2013-11-07 03:07:00,
2013-11-06 22:12:00,48.2,39.2,30.06,SSW,208,0.0,0.1,71,0.00,CLR,,0.00,WeatherDisplay:10.37,2013-11-07 03:12:00,
2013-11-06 22:17:00,48.3,39.3,30.06,SSW,208,2.3,2.3,71,0.00,CLR,,0.00,WeatherDisplay:10.37,2013-11-07 03:17:00,
2013-11-06 22:22:00,47.9,38.9,30.06,SSW,208,1.0,1.0,71,0.00,CLR,,0.00,WeatherDisplay:10.37,2013-11-07 03:22:00,
2013-11-06 22:27:00,48.4,39.4,30.06,SSW,208,2.3,2.3,71,0.00,CLR,,0.00,WeatherDisplay:10.37,2013-11-07 03:27:00,
2013-11-06 22:32:00,48.3,39.3,30.06,SSW,208,3.5,3.5,71,0.00,CLR,,0.00,WeatherDisplay:10.37,2013-11-07 03:32:00,
2013-11-06 22:37:00,48.1,39.1,30.06,SSW,208,0.0,0.0,71,0.00,CLR,,0.00,WeatherDisplay:10.37,2013-11-07 03:37:00,
2013-11-06 22:42:00,48.0,39.0,30.06,SSW,207,2.3,0.0,71,0.00,CLR,,0.00,WeatherDisplay:10.37,2013-11-07 03:42:00,
2013-11-06 22:47:00,48.2,39.2,30.06,SSW,207,1.1,1.2,71,0.00,CLR,,0.00,WeatherDisplay:10.37,2013-11-07 03:47:00,
2013-11-06 22:52:00,47.9,38.9,30.06,SSW,207,1.1,1.1,71,0.00,CLR,,0.00,WeatherDisplay:10.37,2013-11-07 03:52:00,
2013-11-06 22:57:00,48.1,39.1,30.06,SSW,207,1.1,1.1,71,0.00,CLR,,0.00,WeatherDisplay:10.37,2013-11-07 03:57:00,
2013-11-06 23:02:00,48.1,39.1,30.06,SSW,206,1.1,1.1,71,0.00,CLR,,0.00,WeatherDisplay:10.37,2013-11-07 04:02:00,
2013-11-06 23:07:00,48.1,39.1,30.06,SSW,207,1.1,1.1,71,0.00,CLR,,0.00,WeatherDisplay:10.37,2013-11-07 04:07:00,
2013-11-06 23:12:00,48.5,40.6,30.01,SSW,207,3.5,3.5,74,0.00,CLR,,0.00,WeatherDisplay:10.37,2013-11-07 04:12:00,
2013-11-06 23:17:00,48.7,40.8,30.01,SSW,206,3.5,3.5,74,0.00,CLR,,0.00,WeatherDisplay:10.37,2013-11-07 04:17:00,
2013-11-06 23:22:00,48.7,40.8,30.01,SSW,206,2.3,2.3,74,0.00,CLR,,0.00,WeatherDisplay:10.37,2013-11-07 04:22:00,
2013-11-06 23:27:00,48.6,40.7,30.01,SSW,206,2.3,2.3,74,0.00,CLR,,0.00,WeatherDisplay:10.37,2013-11-07 04:27:00,
2013-11-06 23:32:00,48.7,40.8,30.01,SSW,206,1.1,1.1,74,0.00,CLR,,0.00,WeatherDisplay:10.37,2013-11-07 04:32:00,
2013-11-06 23:37:00,48.2,40.3,30.01,SSW,206,1.0,1.0,74,0.00,CLR,,0.00,WeatherDisplay:10.37,2013-11-07 04:37:00,
2013-11-06 23:42:00,47.7,39.8,30.01,SSW,206,2.3,2.3,74,0.00,CLR,,0.00,WeatherDisplay:10.37,2013-11-07 04:42:00,
2013-11-06 23:47:00,47.6,39.7,30.01,SSW,206,1.1,0.0,74,0.00,CLR,,0.00,WeatherDisplay:10.37,2013-11-07 04:47:00,
2013-11-06 23:52:00,47.6,39.7,30.01,SSW,206,1.1,1.1,74,0.00,CLR,,0.00,WeatherDisplay:10.37,2013-11-07 04:52:00,
2013-11-06 23:57:00,47.8,39.9,30.01,SSW,206,1.1,1.1,74,0.00,CLR,,0.00,WeatherDisplay:10.37,2013-11-07 04:57:00,